This is the latest recevied weather packets stored in our database for station/object SP1BMW-13. If no packets are shown the sender has not sent any weather packets the latest 10 day(s).
| Time | Temp. | Humidity | Pressure | Rain* | Wind** | Luminosity | Snow |
|---|---|---|---|---|---|---|---|
| 1788108398 | 23.89° C | 53% | 1008.9 hPa | 0 mm | 0.89 m/s, 237° | 42 W/m² | - |
| 1788108338 | 23.89° C | 53% | 1009 hPa | 0 mm | 2.24 m/s, 255° | 43 W/m² | - |
| 1788108278 | 23.89° C | 53% | 1009 hPa | 0 mm | 0.89 m/s, 232° | 44 W/m² | - |
| 1788108218 | 23.89° C | 53% | 1009 hPa | 0 mm | 1.34 m/s, 240° | 45 W/m² | - |
| 1788108158 | 24.44° C | 53% | 1008.9 hPa | 0 mm | 0.89 m/s, 260° | 47 W/m² | - |
| 1788108100 | 24.44° C | 53% | 1008.9 hPa | 0 mm | 0.89 m/s, 293° | 57 W/m² | - |
| 1788108038 | 24.44° C | 52% | 1009.1 hPa | 0 mm | 0.89 m/s, 197° | 53 W/m² | - |
| 1788107978 | 24.44° C | 53% | 1009 hPa | 0 mm | 0.45 m/s, 327° | 57 W/m² | - |
| 1788107918 | 24.44° C | 53% | 1008.8 hPa | 0 mm | 0.89 m/s, 338° | 52 W/m² | - |
| 1788107860 | 24.44° C | 52% | 1008.7 hPa | 0 mm | 1.34 m/s, 256° | 48 W/m² | - |
| 1788107798 | 24.44° C | 52% | 1008.9 hPa | 0 mm | 0.45 m/s, 22° | 48 W/m² | - |
| 1788107738 | 24.44° C | 51% | 1008.8 hPa | 0 mm | 1.79 m/s, 164° | 59 W/m² | - |
| 1788107681 | 24.44° C | 52% | 1008.8 hPa | 0 mm | 0.89 m/s, 293° | 47 W/m² | - |
| 1788107621 | 24.44° C | 52% | 1008.8 hPa | 0 mm | 0.45 m/s, 257° | 69 W/m² | - |
| 1788107558 | 24.44° C | 51% | 1008.8 hPa | 0 mm | 2.68 m/s, 198° | 96 W/m² | - |
| 1788107498 | 24.44° C | 51% | 1009 hPa | 0 mm | 1.34 m/s, 235° | 100 W/m² | - |
| 1788107441 | 24.44° C | 52% | 1008.9 hPa | 0 mm | 0.45 m/s, 31° | 90 W/m² | - |
| 1788107378 | 24.44° C | 51% | 1008.7 hPa | 0 mm | 0.89 m/s, 265° | 49 W/m² | - |
| 1788107318 | 24.44° C | 51% | 1008.6 hPa | 0 mm | 1.34 m/s, 298° | 104 W/m² | - |
| 1788107258 | 24.44° C | 51% | 1008.8 hPa | 0 mm | 0.89 m/s, 198° | 69 W/m² | - |
| 1788107198 | 25° C | 50% | 1008.6 hPa | 0 mm | 0.89 m/s, 153° | 46 W/m² | - |
| 1788107138 | 25° C | 50% | 1008.7 hPa | 0 mm | 0.89 m/s, 274° | 48 W/m² | - |
| 1788107078 | 25° C | 50% | 1008.7 hPa | 0 mm | 1.34 m/s, 266° | 60 W/m² | - |
| 1788107018 | 25° C | 50% | 1008.6 hPa | 0 mm | 0.45 m/s, 43° | 53 W/m² | - |
| 1788106958 | 25° C | 50% | 1008.6 hPa | 0 mm | 1.34 m/s, 295° | 75 W/m² | - |
* Rain latest hour (hover to see other rain measurements)
** Current wind speed in m/s (hover to see current wind gust speed)